Weather History for Wilmington, DE

Change the Weather History Date:

Tuesday, February 26, 2013

  Actual Average Record
Temperature  
Mean Temperature 36 °F 38 °F  
Max Temperature 46 °F 46 °F 76 °F (1930)
Min Temperature 26 °F 29 °F 8 °F (1970)
Degree Days  
Heating Degree Days 29 27  
Month to date heating degree days 806 782  
Since 1 July heating degree days 3355 3569  
Cooling Degree Days 0 0  
Month to date cooling degree days 0 0  
Year to date cooling degree days 0 0  
Moisture  
Dew Point 33 °F    
Average Humidity 75    
Maximum Humidity 92    
Minimum Humidity 58    
Precipitation  
Precipitation 0.50 in 0.10 in 1.30 in (1929)
Month to date precipitation 2.14 2.49  
Year to date precipitation 5.84 5.50  
Snow  
Snow 0.00 in 0.20 in 4.10 in (2010)
Month to date snowfall 1.6 7.9  
Since 1 July snowfall 4.2 17.6  
Snow Depth 0.00 in    
Sea Level Pressure  
Sea Level Pressure 30.02 in    
Wind  
Wind Speed 12 mph (ENE)    
Max Wind Speed 30 mph    
Max Gust Speed 37 mph    
Visibility 8 miles    
Events Rain    
T = Trace of Precipitation, MM = Missing Value Source: NWS Daily Summary

Daily Weather History Graph

Daily Weather History Graph

Search for Another Location

Airport:

Trip Planner

Search our weather history database for the weather conditions in past years. The results will help you decide how hot, cold, wet, or windy it might be!

Date:

Astronomy

Feb. 26, 2013 Rise Set
Actual Time 6:39 AM EST 5:51 PM EST
Civil Twilight 6:12 AM EST 6:18 PM EST
Nautical Twilight 5:41 AM EST 6:49 PM EST
Astronomical Twilight 5:10 AM EST 7:21 PM EST
Moon 7:05 PM EST 6:41 AM EST
Length of Visible Light 12h 06m
Length of Day
11h 12m
Full, 99% of the Moon is Illuminated
Feb 26
Full
Mar 4
Last Quarter
Mar 11
New
Mar 19
First Quarter
Mar 27
Full

Hourly Weather History & Observations

Time (EST) Temp. Windchill Dew Point Humidity Pressure Visibility Wind Dir Wind Speed Gust Speed Precip Events Conditions
12:51 AM 28.9 °F - 25.0 °F 85% 30.25 in 10.0 mi Calm Calm - N/A   Clear
1:51 AM 30.0 °F 26.5 °F 25.0 °F 82% 30.25 in 10.0 mi North 3.5 mph - N/A   Clear
2:51 AM 28.9 °F - 24.1 °F 82% 30.26 in 10.0 mi Calm Calm - N/A   Clear
3:51 AM 28.0 °F 22.8 °F 24.1 °F 85% 30.23 in 10.0 mi NNE 4.6 mph - N/A   Clear
4:51 AM 28.0 °F 24.2 °F 24.1 °F 85% 30.23 in 10.0 mi North 3.5 mph - N/A   Clear
5:51 AM 28.0 °F 22.8 °F 25.0 °F 88% 30.21 in 9.0 mi NE 4.6 mph - N/A   Clear
6:51 AM 32.0 °F 24.8 °F 27.0 °F 82% 30.23 in 8.0 mi ENE 8.1 mph - N/A   Clear
7:51 AM 34.0 °F 27.2 °F 28.0 °F 79% 30.23 in 9.0 mi ENE 8.1 mph - N/A   Clear
8:51 AM 36.0 °F 29.6 °F 28.9 °F 76% 30.25 in 10.0 mi ENE 8.1 mph - N/A   Clear
9:51 AM 39.0 °F 33.4 °F 28.0 °F 65% 30.25 in 10.0 mi ENE 8.1 mph - N/A   Clear
10:51 AM 43.0 °F 39.5 °F 30.0 °F 60% 30.22 in 10.0 mi Variable 5.8 mph - N/A   Scattered Clouds
11:51 AM 44.1 °F 38.1 °F 30.9 °F 60% 30.22 in 10.0 mi East 11.5 mph - N/A   Overcast
12:51 PM 45.0 °F 39.7 °F 33.1 °F 63% 30.17 in 10.0 mi East 10.4 mph - N/A   Overcast
1:51 PM 46.0 °F 40.2 °F 33.1 °F 61% 30.14 in 10.0 mi East 12.7 mph - N/A   Overcast
2:51 PM 44.1 °F 36.5 °F 34.0 °F 68% 30.11 in 10.0 mi East 17.3 mph 23.0 mph 0.00 in Rain Light Rain
3:51 PM 44.1 °F 37.1 °F 33.1 °F 65% 30.08 in 10.0 mi East 15.0 mph 21.9 mph 0.00 in   Overcast
4:51 PM 44.1 °F 36.8 °F 33.1 °F 65% 30.03 in 10.0 mi East 16.1 mph 27.6 mph N/A   Overcast
5:51 PM 43.0 °F 34.2 °F 35.1 °F 74% 29.99 in 10.0 mi East 20.7 mph 29.9 mph 0.00 in Rain Light Rain
6:11 PM 42.8 °F 34.3 °F 35.6 °F 76% 29.97 in 9.0 mi East 19.6 mph 28.8 mph 0.00 in Rain Light Rain
6:51 PM 41.0 °F 31.4 °F 37.0 °F 86% 29.95 in 8.0 mi East 21.9 mph 29.9 mph 0.02 in Rain Light Rain
7:51 PM 41.0 °F 30.5 °F 37.0 °F 86% 29.89 in 10.0 mi ENE 26.5 mph 33.4 mph 0.02 in   Overcast
8:28 PM 41.0 °F 31.4 °F 37.4 °F 87% 29.88 in 4.0 mi East 21.9 mph 29.9 mph 0.02 in Rain Rain
8:51 PM 39.9 °F 29.5 °F 37.0 °F 89% 29.85 in 4.0 mi ENE 24.2 mph 33.4 mph 0.07 in Rain Light Rain
9:22 PM 39.2 °F 28.5 °F 37.4 °F 93% 29.82 in 7.0 mi ENE 24.2 mph 31.1 mph 0.01 in Rain Light Rain
9:29 PM 39.2 °F 29.3 °F 37.4 °F 93% 29.82 in 5.0 mi ENE 20.7 mph 31.1 mph 0.01 in Rain Light Rain
9:36 PM 39.2 °F 28.7 °F 37.4 °F 93% 29.80 in 6.0 mi ENE 23.0 mph 32.2 mph 0.01 in Rain Light Rain
9:51 PM 39.9 °F 30.2 °F 37.9 °F 93% 29.82 in 4.0 mi ENE 20.7 mph 29.9 mph 0.04 in Rain Light Rain
10:51 PM 39.9 °F 31.8 °F 37.9 °F 93% 29.76 in 3.0 mi ENE 15.0 mph 23.0 mph 0.17 in Rain Heavy Rain
10:54 PM 39.2 °F 30.5 °F 37.4 °F 93% 29.76 in 2.5 mi ENE 16.1 mph 23.0 mph 0.01 in Rain Heavy Rain
11:14 PM 39.2 °F 31.2 °F 39.2 °F 100% 29.77 in 4.0 mi ENE 13.8 mph - 0.07 in Rain Light Rain
11:31 PM 39.2 °F 30.5 °F 39.2 °F 100% 29.75 in 2.5 mi NE 16.1 mph - 0.12 in Rain Heavy Rain
11:38 PM 39.2 °F 31.2 °F 39.2 °F 100% 29.75 in 3.0 mi NE 13.8 mph - 0.14 in Rain Rain
11:51 PM 39.9 °F 31.1 °F 39.0 °F 97% 29.73 in 2.5 mi NE 17.3 mph 25.3 mph 0.17 in Rain Rain